Location: Unspecified
(43.8044°N, 11.0278°E)
Time: 09:09:35
(UTC+02:00)

Resurs 1-4 Rocket - Visible Passes

Search period start: 30 April 2017 00:00
Search period end: 10 May 2017 00:00
Orbit: 799 x 815 km, 98.5° (Epoch: 28 April)

Date Brightness Start Highest point End Pass type
(mag) Time Alt. Az. Time Alt. Az. Time Alt. Az.
30 Apr 4.3 02:21:45 10° ENE 02:24:35 14° E 02:26:09 13° ESE visible
30 Apr 2.0 03:59:43 10° N 04:04:59 75° WNW 04:07:15 35° SSW visible
01 May 2.3 03:35:10 10° NNE 03:40:26 68° ESE 03:42:28 37° S visible
01 May 3.8 05:16:15 10° NNW 05:19:44 18° WNW 05:23:11 10° WSW visible
02 May 3.0 03:10:48 10° NNE 03:15:47 41° E 03:17:41 30° SE visible
02 May 3.2 04:51:01 10° N 04:55:26 28° WNW 04:58:46 15° WSW visible
03 May 3.8 02:46:44 10° NE 02:51:03 25° E 02:52:54 21° SE visible
03 May 2.6 04:26:04 10° N 04:31:03 44° WNW 04:34:00 23° SW visible
04 May 4.3 02:23:13 10° NE 02:26:13 15° E 02:28:08 13° ESE visible
04 May 2.1 04:01:19 10° N 04:06:35 72° WNW 04:09:13 30° SSW visible
05 May 2.2 03:36:45 10° NNE 03:42:02 71° ESE 03:44:26 33° S visible
05 May 3.8 05:17:55 10° NNW 05:21:18 18° WNW 05:24:41 10° W visible
06 May 3.0 03:12:22 10° NNE 03:17:23 42° E 03:19:38 28° SSE visible
06 May 3.3 04:52:38 10° N 04:57:01 27° WNW 05:00:44 13° WSW visible
07 May 3.7 02:48:17 10° NE 02:52:40 26° E 02:54:51 20° SE visible
07 May 2.7 04:27:41 10° N 04:32:38 43° WNW 04:35:57 20° SW visible
08 May 4.3 02:24:41 10° NE 02:27:51 16° E 02:30:04 13° ESE visible
08 May 2.1 04:02:55 10° N 04:08:11 70° WNW 04:11:09 26° SSW visible
09 May 2.2 03:38:21 10° NNE 03:43:38 73° ESE 03:46:22 29° S visible
09 May 3.8 05:19:35 10° NNW 05:22:53 17° WNW 05:26:10 10° W visible
